NOZ26F ENGM-EDDH

Flight info

Callsign NOZ26F
Flight time N/A
Altitude 35000
Route VIPPA DCT AAL DCT LUTUS/N0444F360 P615 ALS M852 EKERN T905 BOGMU BOGMU3D
Aircraft B38M/M-SDE1FGHILORVWXY/HB1

Departure

Time 2026-05-01 14:49
Airport Oslo-Gardermoen International Airport (ENGM)

Arrival

Time N/A
Airport Hamburg Helmut Schmidt Airport (EDDH)
Time Latitude Longitude Altitude Speed Heading
2026-05-01 14:26 60.19632 11.09950 687 ft 0 kts 106°
2026-05-01 14:38 60.19636 11.09922 680 ft 4 kts 106°
2026-05-01 14:39 60.19643 11.09871 684 ft 4 kts 106°
2026-05-01 14:39 60.19645 11.09861 685 ft 1 kts 106°
2026-05-01 14:42 60.19645 11.09867 684 ft 1 kts 91°
2026-05-01 14:42 60.19658 11.09884 683 ft 4 kts
2026-05-01 14:43 60.19686 11.09845 683 ft 6 kts 303°
2026-05-01 14:43 60.19707 11.09741 685 ft 11 kts 285°
2026-05-01 14:43 60.19734 11.09554 685 ft 16 kts 286°
2026-05-01 14:43 60.19768 11.09316 682 ft 19 kts 286°
2026-05-01 14:44 60.19805 11.09055 684 ft 21 kts 286°
2026-05-01 14:44 60.19918 11.08752 682 ft 13 kts 17°
2026-05-01 14:44 60.20011 11.08807 679 ft 15 kts 17°
2026-05-01 14:45 60.20117 11.08870 683 ft 17 kts 16°
2026-05-01 14:45 60.20319 11.08986 682 ft 20 kts 16°
2026-05-01 14:45 60.20456 11.09064 683 ft 21 kts 16°
2026-05-01 14:46 60.20606 11.09151 685 ft 23 kts 16°
2026-05-01 14:46 60.20936 11.09342 682 ft 26 kts 16°
2026-05-01 14:46 60.21099 11.09436 689 ft 24 kts 16°
2026-05-01 14:47 60.21267 11.09533 690 ft 26 kts 16°
2026-05-01 14:47 60.21436 11.09630 687 ft 19 kts 16°
2026-05-01 14:47 60.21538 11.09560 683 ft 18 kts 301°
2026-05-01 14:48 60.21579 11.09272 683 ft 11 kts 285°
2026-05-01 14:48 60.21568 11.09142 684 ft 9 kts 199°
2026-05-01 14:48 60.20986 11.08807 680 ft 108 kts 195°
2026-05-01 14:49 60.18998 11.07649 1477 ft 165 kts 200°
2026-05-01 14:49 60.16834 11.06067 2984 ft 188 kts 219°
2026-05-01 14:50 60.15613 11.01906 4223 ft 223 kts 246°
2026-05-01 14:50 60.14025 10.94836 6462 ft 247 kts 246°
2026-05-01 14:51 60.13300 10.91693 7599 ft 248 kts 247°
2026-05-01 14:51 60.11851 10.85395 9836 ft 251 kts 246°
2026-05-01 14:52 60.10331 10.78808 11200 ft 279 kts 246°
2026-05-01 14:52 60.09493 10.75186 11786 ft 293 kts 246°
2026-05-01 14:52 60.07742 10.67637 13495 ft 302 kts 246°
2026-05-01 14:53 60.06850 10.63802 14321 ft 305 kts 246°
2026-05-01 14:53 60.05931 10.59941 15053 ft 310 kts 242°
2026-05-01 14:53 60.04522 10.56632 15766 ft 320 kts 221°
2026-05-01 14:53 60.02503 10.54586 16532 ft 333 kts 201°
2026-05-01 14:54 60.00190 10.53731 17230 ft 342 kts 196°
2026-05-01 14:54 59.97825 10.52921 17872 ft 346 kts 196°
2026-05-01 14:54 59.95440 10.52114 18558 ft 350 kts 196°
2026-05-01 14:54 59.93011 10.51298 19154 ft 354 kts 195°
2026-05-01 14:55 59.90579 10.50484 19764 ft 357 kts 195°
2026-05-01 14:55 59.88122 10.49663 20338 ft 360 kts 195°
2026-05-01 14:55 59.85666 10.48844 20915 ft 363 kts 195°
2026-05-01 14:55 59.83161 10.48009 21470 ft 367 kts 195°
2026-05-01 14:56 59.80632 10.47169 22027 ft 370 kts 195°
2026-05-01 14:56 59.78081 10.46324 22566 ft 374 kts 195°
2026-05-01 14:56 59.75505 10.45469 23121 ft 377 kts 195°
2026-05-01 14:56 59.72904 10.44607 23686 ft 381 kts 195°
2026-05-01 14:57 59.70277 10.43739 24169 ft 384 kts 195°
2026-05-01 14:57 59.64965 10.41989 25149 ft 389 kts 195°
2026-05-01 14:57 59.62290 10.41109 25622 ft 392 kts 195°
2026-05-01 14:58 59.59590 10.40221 26093 ft 394 kts 195°
2026-05-01 14:58 59.56880 10.39301 26549 ft 397 kts 195°
2026-05-01 14:58 59.54152 10.38376 27005 ft 399 kts 195°
2026-05-01 14:58 59.51433 10.37457 27431 ft 402 kts 195°
2026-05-01 14:59 59.48666 10.36524 27863 ft 405 kts 195°
2026-05-01 14:59 59.45876 10.35586 28285 ft 407 kts 194°
2026-05-01 14:59 59.43072 10.34644 28711 ft 410 kts 194°
2026-05-01 14:59 59.40245 10.33695 29129 ft 413 kts 194°
2026-05-01 15:00 59.34673 10.31830 29898 ft 419 kts 194°
2026-05-01 15:00 59.31788 10.30867 30278 ft 421 kts 194°
2026-05-01 15:00 59.28891 10.29901 30610 ft 424 kts 194°
2026-05-01 15:01 59.25986 10.28934 30942 ft 425 kts 194°
2026-05-01 15:01 59.23050 10.27960 31288 ft 428 kts 194°
2026-05-01 15:01 59.20109 10.26985 31603 ft 430 kts 194°
2026-05-01 15:01 59.17191 10.26058 31918 ft 434 kts 191°
2026-05-01 15:02 59.14158 10.25680 32259 ft 437 kts 188°
2026-05-01 15:02 59.12102 10.25423 32473 ft 438 kts 189°
2026-05-01 15:02 59.08057 10.24868 32881 ft 441 kts 189°
2026-05-01 15:02 59.04994 10.24424 33256 ft 441 kts 189°
2026-05-01 15:03 59.01934 10.23973 33688 ft 440 kts 189°
2026-05-01 15:03 58.98880 10.23523 34123 ft 439 kts 189°
2026-05-01 15:03 58.95830 10.23073 34485 ft 438 kts 189°
2026-05-01 15:03 58.92791 10.22662 34824 ft 439 kts 188°
2026-05-01 15:04 58.89743 10.22260 35150 ft 438 kts 189°
2026-05-01 15:04 58.86698 10.21857 35474 ft 438 kts 188°
2026-05-01 15:04 58.83657 10.21454 35792 ft 438 kts 188°
2026-05-01 15:04 58.80617 10.21050 36102 ft 438 kts 188°
2026-05-01 15:05 58.77564 10.20647 36242 ft 440 kts 188°
2026-05-01 15:05 58.71471 10.19843 36234 ft 437 kts 188°
2026-05-01 15:06 58.65405 10.19045 36234 ft 437 kts 188°
2026-05-01 15:06 58.59319 10.18247 36236 ft 438 kts 188°
2026-05-01 15:07 58.53241 10.17454 36246 ft 438 kts 188°
2026-05-01 15:07 58.47162 10.16663 36252 ft 438 kts 188°
2026-05-01 15:08 58.41122 10.15880 36257 ft 438 kts 188°
2026-05-01 15:08 58.35034 10.15093 36260 ft 438 kts 188°
2026-05-01 15:09 58.28944 10.14308 36266 ft 438 kts 188°
2026-05-01 15:09 58.22856 10.13527 36274 ft 439 kts 188°
2026-05-01 15:10 58.16745 10.12745 36274 ft 439 kts 188°
2026-05-01 15:10 58.07604 10.11582 36281 ft 439 kts 188°
2026-05-01 15:11 57.98491 10.10427 36286 ft 439 kts 187°
2026-05-01 15:12 57.92391 10.09658 36285 ft 439 kts 187°
2026-05-01 15:12 57.83225 10.08506 36293 ft 440 kts 187°
2026-05-01 15:14 57.67961 10.06602 36298 ft 440 kts 187°
2026-05-01 15:14 57.58788 10.05464 36295 ft 440 kts 187°
2026-05-01 15:15 57.46602 10.03963 36296 ft 440 kts 187°
2026-05-01 15:16 57.39458 10.03088 36301 ft 440 kts 187°
2026-05-01 15:18 57.25868 10.01432 36311 ft 441 kts 186°
2026-05-01 15:19 57.13602 9.99946 36324 ft 442 kts 186°
2026-05-01 15:19 57.04360 9.99710 36320 ft 443 kts 182°
2026-05-01 15:20 56.95101 9.99700 36310 ft 444 kts 182°
2026-05-01 15:21 56.88918 9.99681 36303 ft 444 kts 182°
2026-05-01 15:21 56.82781 9.99661 36296 ft 444 kts 182°
2026-05-01 15:22 56.73500 9.99634 36286 ft 445 kts 182°
2026-05-01 15:22 56.67303 9.99615 36286 ft 445 kts 182°
2026-05-01 15:23 56.61111 9.99596 36289 ft 445 kts 182°
2026-05-01 15:23 56.54919 9.99576 36291 ft 445 kts 182°
2026-05-01 15:24 56.48720 9.99557 36289 ft 445 kts 182°
2026-05-01 15:24 56.42520 9.99539 36293 ft 445 kts 182°
2026-05-01 15:25 56.36317 9.99520 36295 ft 445 kts 182°
2026-05-01 15:25 56.30119 9.99501 36291 ft 446 kts 182°
2026-05-01 15:26 56.23947 9.99483 36299 ft 446 kts 182°
2026-05-01 15:26 56.17747 9.99465 36304 ft 446 kts 182°
2026-05-01 15:27 56.11538 9.99446 36303 ft 446 kts 181°
2026-05-01 15:28 56.02220 9.99445 36303 ft 446 kts 181°
2026-05-01 15:28 55.96014 9.99443 36306 ft 446 kts 181°
2026-05-01 15:29 55.86689 9.99436 36296 ft 446 kts 181°
2026-05-01 15:30 55.75310 9.99429 36316 ft 446 kts 181°
2026-05-01 15:31 55.56667 9.99413 36322 ft 446 kts 181°
2026-05-01 15:32 55.44244 9.99398 36337 ft 447 kts 181°
2026-05-01 15:34 55.25632 9.99377 34906 ft 443 kts 181°